This is the latest recevied weather packets stored in our database for station/object OK4ZAW-16. If no packets are shown the sender has not sent any weather packets the latest 10 day(s).
| Time | Temp. | Humidity | Pressure | Rain* | Wind** | Luminosity | Snow |
|---|---|---|---|---|---|---|---|
| 1777711080 | 15° C | 45% | 1027.5 hPa | - | - | 150 W/m² | - |
| 1777710662 | 15° C | 45% | 1027.6 hPa | - | - | 150 W/m² | - |
| 1777709828 | 14.44° C | 43% | 1027.6 hPa | - | - | 150 W/m² | - |
| 1777709411 | 14.44° C | 47% | 1027.6 hPa | - | - | 150 W/m² | - |
| 1777708576 | 14.44° C | 44% | 1027.6 hPa | - | - | 150 W/m² | - |
| 1777708159 | 15° C | 40% | 1027.7 hPa | - | - | 150 W/m² | - |
| 1777707742 | 15.56° C | 43% | 1027.7 hPa | - | - | 150 W/m² | - |
| 1777707325 | 15° C | 45% | 1027.8 hPa | - | - | 150 W/m² | - |
| 1777706907 | 15° C | 47% | 1027.7 hPa | - | - | 150 W/m² | - |
| 1777706490 | 15° C | 46% | 1027.6 hPa | - | - | 150 W/m² | - |
| 1777706073 | 15° C | 46% | 1027.6 hPa | - | - | 150 W/m² | - |
| 1777705656 | 14.44° C | 46% | 1027.6 hPa | - | - | 150 W/m² | - |
| 1777705238 | 14.44° C | 47% | 1027.6 hPa | - | - | 150 W/m² | - |
| 1777704821 | 14.44° C | 48% | 1027.5 hPa | - | - | 150 W/m² | - |
| 1777704404 | 14.44° C | 49% | 1027.5 hPa | - | - | 150 W/m² | - |
| 1777703987 | 14.44° C | 53% | 1027.4 hPa | - | - | 150 W/m² | - |
| 1777703570 | 14.44° C | 53% | 1027.4 hPa | - | - | 150 W/m² | - |
| 1777703153 | 14.44° C | 62% | 1027.5 hPa | - | - | 150 W/m² | - |
| 1777702736 | 13.89° C | 60% | 1027.5 hPa | - | - | 150 W/m² | - |
| 1777702318 | 13.89° C | 66% | 1027.4 hPa | - | - | 150 W/m² | - |
| 1777701901 | 13.33° C | 72% | 1027.4 hPa | - | - | 150 W/m² | - |
| 1777701485 | 12.78° C | 71% | 1027.4 hPa | - | - | 150 W/m² | - |
| 1777701068 | 12.78° C | 81% | 1027.4 hPa | - | - | 150 W/m² | - |
| 1777700651 | 11.67° C | 79% | 1027.4 hPa | - | - | 150 W/m² | - |
| 1777700234 | 11.67° C | 81% | 1027.3 hPa | - | - | 150 W/m² | - |
* Rain since midnight (hover to see other rain measurements)
** Current wind speed in m/s (hover to see current wind gust speed)